Hopewell, New Jersey, United States (08525)
Lat: 40.39N, Lon: 74.76W
Wx Zone: NJZ015
Local Info
Past Weather Observations for Saturday, October 18, 2014

NOTE: This archive is for the closest National Weather Service station to Hopewell. Information may differ from the station used for current weather conditions.

Click here for Long-term Archive

Time Weather Temperature Dewpoint Humidity Pressure Winds Precip Visibility
23:53
Overcast
55°F / 13°C 43°F / 6°C 63% 29.74 in
(1007 mb)
Variable 4.6 mph
(Variable 7 kph)
- 10SM
22:53
Overcast
55°F / 13°C 43°F / 6°C 63% 29.74 in
(1007 mb)
WNW 6.9 mph
(WNW 11 kph)
- 10SM
21:53
Partly Cloudy
54°F / 12°C 43°F / 6°C 67% 29.74 in
(1007 mb)
Calm - 10SM
20:53
Overcast
57°F / 14°C 43°F / 6°C 59% 29.71 in
(1006 mb)
NW 5.8 mph
(NW 9 kph)
- 10SM
19:53
Overcast
59°F / 15°C 41°F / 5°C 51% 29.71 in
(1006 mb)
Variable 5.8 mph
(Variable 9 kph)
- 10SM
18:53
Overcast
61°F / 16°C 41°F / 5°C 48% 29.71 in
(1006 mb)
NW 5.8 mph
(NW 9 kph)
- 10SM
17:53
Overcast
61°F / 16°C 43°F / 6°C 52% 29.68 in
(1005 mb)
Variable 4.6 mph
(Variable 7 kph)
- 10SM
16:53
Overcast
63°F / 17°C 43°F / 6°C 49% 29.65 in
(1004 mb)
NW 9.2 mph
(NW 15 kph)
- 10SM
15:53
Overcast
64°F / 18°C 43°F / 6°C 46% 29.62 in
(1003 mb)
WNW 9.2 mph
(WNW 15 kph)
- 10SM
14:53
Overcast
66°F / 19°C 43°F / 6°C 43% 29.59 in
(1002 mb)
W 10.4 mph
(W 17 kph)
- 10SM
13:53
Mostly Cloudy
70°F / 21°C 45°F / 7°C 40% 29.59 in
(1002 mb)
Variable 6.9 mph
(Variable 11 kph)
- 10SM
12:53
Mostly Cloudy
68°F / 20°C 46°F / 8°C 46% 29.56 in
(1001 mb)
Calm - 10SM
11:53
Mostly Cloudy
68°F / 20°C 46°F / 8°C 46% 29.59 in
(1002 mb)
Variable 6.9 mph
(Variable 11 kph)
- 10SM
10:53
Overcast
66°F / 19°C 48°F / 9°C 52% 29.59 in
(1002 mb)
Variable 6.9 mph
(Variable 11 kph)
- 10SM
09:53
Overcast
61°F / 16°C 55°F / 13°C 83% 29.59 in
(1002 mb)
Calm - 9SM
08:53
Mostly Cloudy
57°F / 14°C 54°F / 12°C 88% 29.59 in
(1002 mb)
Calm - 8SM
07:53
Mostly Cloudy
54°F / 12°C 50°F / 10°C 88% 29.59 in
(1002 mb)
Calm - 8SM
06:53
Partly Cloudy
Fog And Mist
48°F / 9°C 46°F / 8°C 94% 29.59 in
(1002 mb)
Calm - 6SM
05:53
Overcast
48°F / 9°C 46°F / 8°C 94% 29.59 in
(1002 mb)
Calm - 7SM
04:53
Mostly Cloudy
48°F / 9°C 46°F / 8°C 94% 29.59 in
(1002 mb)
Calm - 7SM
03:53
Partly Cloudy
48°F / 9°C 46°F / 8°C 94% 29.59 in
(1002 mb)
Calm - 8SM
02:53
Partly Cloudy
50°F / 10°C 46°F / 8°C 88% 29.59 in
(1002 mb)
Calm - 8SM
02:45
Partly Cloudy
Fog And Mist
50°F / 10°C 48°F / 9°C 94% 29.59 in
(1002 mb)
Calm - 3SM
02:28
Partly Cloudy
Fog And Mist
50°F / 10°C 48°F / 9°C 94% 29.59 in
(1002 mb)
Calm - 1 3/4SM
01:53
Clear
52°F / 11°C 48°F / 9°C 88% 29.62 in
(1003 mb)
Calm - 8SM
00:53
Clear
52°F / 11°C 48°F / 9°C 88% 29.62 in
(1003 mb)
Calm - 8SM
Time Weather Temperature Dewpoint Humidity Pressure Winds Precip Visibility


Weather for websites

WeatherForYou.com, LLC is not responsible for any damages or problems caused by this service. Current weather conditions are obtained from the closest station including government and personal stations which may have varying degrees of accuracy. Weather forecasts are derived from the NOAA NDFD. Like all things, this site belongs to Jesus Christ... He just trusts me to maintain it. If you have any questions or comments email webmaster@weatherforyou.com

Copyright © 2014, WeatherForYou.com LLC. All rights reserved.